[[{"header":{"parameterUnit":"m.s-1","parameterCategory":1,"la1":30.2991,"la2":30.254,"lo1":-89.0895,"lo2":-89.0444,"dy":0.0017,"dx":0.0017,"nx":28,"ny":28,"refTime":"2026-01-02T09:00:00:Z","depth":0,"parameterNumber":2,"parameterNumberName":"U-component_of_WINDS"},"data":[0,0,0,0,0,0,0,0,0,0,0,0,0,0,0,0,0,0,0,0,0,0,0,0,0,0,0,0,0,0,0,0,0,0,0,0,0,0,0,0,0,0,0,0,0,0,0,0,0,0,0,0,0,0,0,0,0,0,-0.6761,-0.6762,0,-0.6843,-0.6844,-0.6845,-0.6859,-0.6858,-0.6857,-0.6856,-0.6943,-0.6946,-0.6949,0,0,0,0,0,0,0,0,0,0,0,0,0,-0.6619,-0.6622,-0.6761,-0.6762,-0.6763,-0.6843,-0.6844,-0.6845,-0.6859,-0.6858,-0.6857,-0.6856,-0.6942,-0.6945,-0.6949,0,0,0,0,0,0,0,0,0,0,0,0,0,-0.6689,-0.6623,-0.6761,-0.6779,-0.6782,-0.6842,-0.6844,-0.6845,-0.6859,-0.6858,-0.6857,-0.6856,-0.6941,-0.6945,-0.695,-0.6998,0,0,-0.6963,-0.6965,0,0,0,0,0,0,0,0,-0.6685,-0.6694,-0.6776,-0.6778,-0.6781,-0.6839,-0.6825,-0.6896,-0.6859,-0.683,-0.6856,-0.6855,-0.691,-0.6916,-0.6934,-0.7002,-0.7006,-0.6963,-0.6966,-0.6968,-0.6969,0,0,0,0,0,0,0,-0.668,-0.6691,-0.6793,-0.6777,-0.678,-0.6784,-0.6793,-0.6839,-0.6875,-0.6832,-0.6833,-0.6843,-0.6911,-0.693,-0.6936,-0.7007,-0.6963,-0.6967,-0.697,-0.6972,-0.712,-0.7121,0,0,0,0,0,0,-0.6672,-0.6687,-0.6791,-0.6796,-0.6729,-0.6788,-0.6798,-0.6822,-0.6874,-0.6881,-0.6844,-0.6843,-0.6923,-0.6931,-0.6939,-0.7001,-0.6968,-0.6972,-0.6975,-0.7118,-0.712,-0.7121,0,0,0,0,0,0,-0.6668,-0.6681,-0.6787,-0.6742,-0.6755,-0.6791,-0.6818,-0.6824,-0.6843,-0.6883,-0.6889,-0.6856,-0.6922,-0.6933,-0.6983,-0.7004,-0.6974,-0.6978,-0.7117,-0.7119,-0.7121,-0.7123,0,0,0,0,0,0,-0.6664,-0.668,-0.6698,-0.6742,-0.6758,-0.6829,-0.682,-0.6826,-0.685,-0.685,-0.6896,-0.6903,-0.6922,-0.6977,-0.6988,-0.7009,-0.6982,-0.7115,-0.7118,-0.712,-0.7121,-0.7125,-0.7128,0,0,0,0,0,-0.6659,-0.6696,-0.6699,-0.6711,-0.6781,-0.683,-0.684,-0.686,-0.6852,-0.6871,-0.6896,-0.6902,-0.6999,-0.6982,-0.6994,-0.7018,-0.7114,-0.7117,-0.712,-0.712,-0.7124,-0.7127,0,0,0,0,0,0,-0.6654,-0.6702,-0.6706,-0.6757,-0.6789,-0.6833,-0.6858,-0.6864,-0.69,-0.6899,-0.6924,-0.6934,-0.6983,-0.7005,-0.6985,-0.7068,-0.7056,-0.7062,-0.7052,-0.7056,-0.7059,-0.7054,-0.6985,0,0,0,0,0,-0.6659,-0.6694,-0.6734,-0.6775,-0.6791,-0.6821,-0.6844,-0.6857,-0.6892,-0.6906,-0.6935,-0.6969,-0.7008,-0.7033,-0.7071,-0.7124,-0.7135,-0.7146,-0.7149,-0.7152,-0.7157,-0.7188,-0.7193,-0.7131,-0.7131,-0.7131,0,0,-0.6669,-0.6699,-0.672,-0.6775,-0.6802,-0.6839,-0.6833,-0.6872,-0.69,-0.6912,-0.6961,-0.6984,-0.7024,-0.7076,-0.71,-0.7096,-0.7176,-0.7155,-0.7157,-0.7161,-0.7191,-0.7197,-0.7202,-0.7133,-0.7132,-0.7132,0,0,-0.6707,-0.6733,-0.6771,-0.6798,-0.6838,-0.6857,-0.6866,-0.6908,-0.6924,-0.6973,-0.6983,-0.7017,-0.7082,-0.7111,-0.7134,-0.7182,-0.7189,-0.7193,-0.7211,-0.7241,-0.7246,-0.725,-0.7269,-0.7275,-0.7198,-0.7198,-0.7198,0,-0.6716,-0.6771,-0.679,-0.6829,-0.6853,-0.6864,-0.6903,-0.6928,-0.6979,-0.6996,-0.699,-0.7072,-0.71,-0.716,-0.7171,-0.7189,-0.7201,-0.7189,-0.7243,-0.7248,-0.7253,-0.7271,-0.7278,-0.7198,-0.7198,-0.7198,-0.7198,0,-0.678,-0.6818,-0.6844,-0.6891,-0.6918,-0.6957,-0.6983,-0.7008,-0.7018,-0.7039,-0.709,-0.7123,-0.7168,-0.7183,-0.7193,-0.7244,-0.724,-0.7238,-0.7228,-0.7259,-0.7276,-0.7283,-0.7199,-0.7199,-0.7199,-0.7199,0,0,-0.6819,-0.6876,-0.6885,-0.6907,-0.6952,-0.6982,-0.7021,-0.7064,-0.7086,-0.712,-0.7155,-0.721,-0.7208,-0.7234,-0.7248,-0.7274,-0.7312,-0.7269,-0.7271,-0.7277,-0.7371,-0.7374,-0.7381,-0.7315,-0.7317,-0.7318,-0.7368,0,-0.6863,-0.6933,-0.6952,-0.7012,-0.7048,-0.7058,-0.7093,-0.7124,-0.7144,-0.7179,-0.7201,-0.724,-0.7234,-0.725,-0.7276,-0.7302,-0.7331,-0.7298,-0.735,-0.7351,-0.7341,-0.739,-0.7393,-0.7439,-0.7375,-0.7376,-0.7377,0,-0.6925,-0.696,-0.7023,-0.7064,-0.7079,-0.711,-0.7151,-0.7183,-0.7219,-0.7232,-0.7261,-0.7272,-0.7315,-0.73,-0.736,-0.7337,-0.7359,-0.7374,-0.7377,-0.7384,-0.7367,-0.74,-0.7454,-0.7462,-0.7388,-0.7387,-0.7386,0,-0.6949,-0.7012,-0.7058,-0.7076,-0.7124,-0.7145,-0.7166,-0.7201,-0.7226,-0.7262,-0.7279,-0.7319,-0.7342,-0.7373,-0.7396,-0.7383,-0.7454,-0.7441,-0.7467,-0.7467,-0.7483,-0.7482,-0.7543,-0.7494,-0.7494,-0.7494,-0.7494,0,-0.6999,-0.7037,-0.7069,-0.7098,-0.7142,-0.7163,-0.7206,-0.7227,-0.7258,-0.7292,-0.7303,-0.7335,-0.7361,-0.7397,-0.7414,-0.7462,-0.7472,-0.7484,-0.7489,-0.7484,-0.7483,-0.7501,-0.7499,-0.7496,-0.7496,-0.7495,-0.7495,0,-0.7034,-0.7056,-0.7108,-0.7148,-0.7159,-0.719,-0.7225,-0.7254,-0.7273,-0.7316,-0.7327,-0.7359,-0.7401,-0.7426,-0.7479,-0.7491,-0.7545,-0.7547,-0.7532,-0.7535,-0.756,-0.7558,-0.7636,-0.7648,-0.7589,-0.759,-0.759,0,-0.7064,-0.7094,-0.7138,-0.7161,-0.7182,-0.7218,-0.7243,-0.7265,-0.7291,-0.7334,-0.7358,-0.74,-0.7436,-0.7503,-0.7532,-0.7573,-0.7577,-0.7601,-0.7584,-0.7578,-0.758,-0.7578,-0.7582,-0.7605,-0.7606,-0.7606,-0.7606,0,-0.7117,-0.7127,-0.7162,-0.7201,-0.7231,-0.7263,-0.7295,-0.7313,-0.734,-0.7369,-0.7412,-0.7439,-0.7493,-0.7536,-0.7579,-0.7602,-0.761,-0.7611,-0.762,-0.7617,-0.7608,-0.7615,-0.7543,-0.761,-0.761,-0.761,-0.7609,-0.7609,-0.7152,-0.718,-0.7214,-0.7254,-0.728,-0.7309,-0.7338,-0.7361,-0.7397,-0.7443,-0.7453,-0.7498,-0.7534,-0.7593,-0.7617,-0.7653,-0.7649,-0.7661,-0.7665,-0.7668,-0.7669,-0.76,-0.7661,-0.7661,-0.7661,-0.7661,-0.7661,0,-0.7207,-0.723,-0.7265,-0.7309,-0.734,-0.7342,-0.7378,-0.7404,-0.7444,-0.7476,-0.751,-0.756,-0.7602,-0.7633,-0.7675,-0.7699,-0.7703,-0.7709,-0.7709,-0.7714,-0.767,-0.7659,-0.7705,-0.7705,-0.7705,-0.7705,-0.7705,-0.7705,-0.7239,-0.7286,-0.73,-0.736,-0.7383,-0.7427,-0.7447,-0.7475,-0.7501,-0.7555,-0.7589,-0.7609,-0.7641,-0.7686,-0.7725,-0.7733,-0.7749,-0.7755,-0.7764,-0.7722,-0.7717,-0.7713,-0.7703,-0.7758,-0.7758,-0.7806,-0.7806,-0.7807]},{"header":{"parameterUnit":"m.s-1","parameterCategory":1,"la1":30.2991,"la2":30.254,"lo1":-89.0895,"lo2":-89.0444,"dy":0.0017,"dx":0.0017,"nx":28,"ny":28,"refTime":"2026-01-02T09:00:00:Z","depth":0,"parameterNumber":3,"parameterNumberName":"V-component_of_WINDS"},"data":[0,0,0,0,0,0,0,0,0,0,0,0,0,0,0,0,0,0,0,0,0,0,0,0,0,0,0,0,0,0,0,0,0,0,0,0,0,0,0,0,0,0,0,0,0,0,0,0,0,0,0,0,0,0,0,0,0,0,-5.806,-5.8061,0,-5.8175,-5.8176,-5.8178,-5.8126,-5.8123,-5.812,-5.8117,-5.8232,-5.8237,-5.8243,0,0,0,0,0,0,0,0,0,0,0,0,0,-5.7791,-5.7796,-5.8059,-5.8061,-5.8062,-5.8175,-5.8177,-5.8178,-5.8126,-5.8123,-5.8119,-5.8116,-5.823,-5.8237,-5.8243,0,0,0,0,0,0,0,0,0,0,0,0,0,-5.7907,-5.7798,-5.8059,-5.805,-5.8051,-5.8175,-5.8177,-5.8179,-5.8127,-5.8123,-5.8118,-5.8115,-5.8228,-5.8236,-5.8244,-5.8383,0,0,-5.8271,-5.8274,0,0,0,0,0,0,0,0,-5.7901,-5.7917,-5.805,-5.8051,-5.8052,-5.8132,-5.8124,-5.8247,-5.8128,-5.8098,-5.8117,-5.8112,-5.8202,-5.8212,-5.8243,-5.8388,-5.8393,-5.8271,-5.8276,-5.828,-5.8283,0,0,0,0,0,0,0,-5.7893,-5.7912,-5.8105,-5.8052,-5.8053,-5.804,-5.8051,-5.8147,-5.8172,-5.81,-5.8097,-5.8111,-5.8201,-5.8235,-5.8245,-5.8395,-5.8271,-5.8279,-5.8284,-5.8287,-5.8661,-5.8665,0,0,0,0,0,0,-5.7885,-5.7906,-5.8101,-5.8109,-5.7964,-5.8048,-5.8061,-5.811,-5.8171,-5.8176,-5.8115,-5.8109,-5.8222,-5.8235,-5.8249,-5.8417,-5.828,-5.8288,-5.8293,-5.8656,-5.8662,-5.8667,0,0,0,0,0,0,-5.788,-5.7903,-5.8097,-5.8006,-5.803,-5.8057,-5.8113,-5.8115,-5.8149,-5.8182,-5.8186,-5.8145,-5.822,-5.8237,-5.8351,-5.842,-5.8292,-5.83,-5.865,-5.8658,-5.8664,-5.8752,0,0,0,0,0,0,-5.7872,-5.7902,-5.7955,-5.8008,-5.8035,-5.8198,-5.8117,-5.812,-5.8164,-5.8157,-5.8211,-5.8216,-5.8218,-5.8338,-5.8359,-5.8429,-5.8306,-5.8644,-5.8654,-5.8662,-5.8743,-5.8762,-5.8777,0,0,0,0,0,-5.7863,-5.7974,-5.7958,-5.7982,-5.8103,-5.8202,-5.8217,-5.8217,-5.817,-5.8224,-5.8245,-5.8215,-5.8409,-5.835,-5.8373,-5.8447,-5.864,-5.8651,-5.8662,-5.8736,-5.8758,-5.8777,0,0,0,0,0,0,-5.7927,-5.7981,-5.7964,-5.8095,-5.8145,-5.8193,-5.826,-5.8241,-5.8303,-5.8294,-5.829,-5.8303,-5.8421,-5.8445,-5.8379,-5.8585,-5.8517,-5.8533,-5.8565,-5.8587,-5.8603,-5.8596,-5.8314,0,0,0,0,0,-5.7956,-5.8033,-5.8076,-5.8188,-5.8213,-5.8233,-5.8276,-5.8272,-5.8323,-5.8343,-5.8373,-5.8422,-5.8494,-5.8541,-5.8609,-5.8746,-5.8758,-5.8808,-5.8825,-5.8839,-5.8853,-5.8929,-5.8952,-5.8702,-5.8702,-5.8702,0,0,-5.8018,-5.8057,-5.8105,-5.8202,-5.8239,-5.8319,-5.8251,-5.8337,-5.8396,-5.8355,-5.8465,-5.8489,-5.8543,-5.867,-5.8727,-5.8694,-5.8925,-5.8853,-5.8864,-5.887,-5.8942,-5.8966,-5.8987,-5.871,-5.8708,-5.8707,0,0,-5.8171,-5.8208,-5.8306,-5.8346,-5.8405,-5.8417,-5.8441,-5.8493,-5.8508,-5.8619,-5.859,-5.8659,-5.8783,-5.8824,-5.8861,-5.9031,-5.9006,-5.9053,-5.9142,-5.9216,-5.9236,-5.9253,-5.9315,-5.9337,-5.9067,-5.9067,-5.9067,0,-5.8239,-5.8359,-5.8358,-5.8449,-5.8492,-5.8461,-5.856,-5.8598,-5.8676,-5.8706,-5.8668,-5.8825,-5.8859,-5.8995,-5.9037,-5.9067,-5.9095,-5.9047,-5.9233,-5.925,-5.9267,-5.9326,-5.9349,-5.9073,-5.9072,-5.9071,-5.9071,0,-5.8441,-5.8525,-5.8597,-5.8676,-5.8727,-5.8821,-5.8834,-5.8886,-5.8878,-5.8895,-5.9008,-5.9048,-5.9125,-5.9157,-5.9149,-5.9293,-5.927,-5.9233,-5.9164,-5.9296,-5.9352,-5.9374,-5.9081,-5.9079,-5.9077,-5.9076,0,0,-5.8637,-5.8716,-5.8742,-5.8778,-5.8842,-5.8906,-5.8998,-5.9075,-5.9121,-5.9175,-5.9253,-5.936,-5.9326,-5.9368,-5.9364,-5.9429,-5.9563,-5.9383,-5.9385,-5.9417,-5.9726,-5.9755,-5.9781,-5.9546,-5.9551,-5.9554,-5.9722,0,-5.8796,-5.8961,-5.8964,-5.9115,-5.9193,-5.9165,-5.9246,-5.9293,-5.9311,-5.9379,-5.9398,-5.9474,-5.9423,-5.9449,-5.9511,-5.9534,-5.9626,-5.9521,-5.9619,-5.9623,-5.9608,-5.981,-5.9841,-5.9997,-5.9743,-5.9747,-5.975,0,-5.9003,-5.9068,-5.9227,-5.9281,-5.9314,-5.9387,-5.9459,-5.9524,-5.9577,-5.9585,-5.9634,-5.9621,-5.9715,-5.9643,-5.9773,-5.9702,-5.9742,-5.9759,-5.9765,-5.9775,-5.9695,-5.9827,-6.0047,-6.0071,-5.9784,-5.9781,-5.9779,0,-5.9133,-5.9258,-5.9371,-5.9402,-5.9467,-5.952,-5.9549,-5.9598,-5.9645,-5.9707,-5.9737,-5.9808,-5.9847,-5.9903,-5.9909,-5.9856,-6.0041,-5.9969,-6.0051,-6.0051,-6.0091,-6.0089,-6.0322,-6.0115,-6.0115,-6.0114,-6.0114,0,-5.9311,-5.9409,-5.943,-5.9499,-5.9609,-5.9611,-5.972,-5.9745,-5.9789,-5.9862,-5.9841,-5.991,-5.9914,-5.9984,-5.9989,-6.0097,-6.0114,-6.0124,-6.0125,-6.0127,-6.0126,-6.0154,-6.0144,-6.012,-6.0119,-6.0118,-6.0117,0,-5.9474,-5.9491,-5.9612,-5.9665,-5.9681,-5.976,-5.9805,-5.987,-5.9887,-5.998,-6.0001,-6.0027,-6.0109,-6.0121,-6.0216,-6.0219,-6.035,-6.0338,-6.0333,-6.0331,-6.0413,-6.0406,-6.0673,-6.0709,-6.0477,-6.0479,-6.0481,0,-5.9587,-5.9663,-5.9725,-5.9773,-5.9806,-5.9884,-5.9933,-5.9937,-5.9988,-6.0056,-6.0114,-6.0194,-6.0259,-6.0391,-6.0417,-6.049,-6.0481,-6.0569,-6.0491,-6.0492,-6.0484,-6.048,-6.0488,-6.0585,-6.0587,-6.0589,-6.0591,0,-5.9786,-5.9792,-5.9863,-5.9939,-5.9997,-6.0056,-6.0111,-6.0152,-6.0164,-6.0222,-6.0307,-6.0357,-6.0456,-6.0536,-6.0609,-6.0638,-6.0617,-6.0615,-6.0638,-6.0642,-6.0637,-6.0643,-6.0375,-6.0609,-6.0607,-6.0606,-6.0605,-6.0604,-5.9929,-5.9996,-6.0051,-6.0132,-6.0174,-6.0227,-6.0293,-6.0318,-6.039,-6.0472,-6.047,-6.0564,-6.0615,-6.0712,-6.0746,-6.0818,-6.0789,-6.0822,-6.0831,-6.0839,-6.0848,-6.0625,-6.0831,-6.083,-6.083,-6.083,-6.0829,0,-6.0128,-6.0163,-6.0237,-6.0317,-6.0381,-6.0357,-6.0418,-6.0472,-6.0556,-6.0607,-6.0672,-6.077,-6.0848,-6.0881,-6.0958,-6.1009,-6.1002,-6.1029,-6.1026,-6.1034,-6.0869,-6.0842,-6.1034,-6.1034,-6.1034,-6.1034,-6.1034,-6.1034,-6.024,-6.0353,-6.0366,-6.05,-6.0533,-6.0627,-6.0664,-6.0712,-6.0753,-6.0865,-6.0931,-6.0952,-6.0996,-6.1076,-6.1147,-6.1154,-6.1184,-6.1216,-6.122,-6.1066,-6.1045,-6.1025,-6.1,-6.1222,-6.1223,-6.1379,-6.138,-6.1381]}]]